Tracking 30685 objects as of 17-Jun-2025
HD Live streaming from Space Station
objects crossing your sky now

COSMOS 402

Track COSMOS 402 now!
10-day predictions
COSMOS 402 is classified as:


NORAD ID: 5105
Int'l Code: 1971-025A
Perigee: 967.7 km
Apogee: 1,023.1 km
Inclination: 65.0 °
Period: 104.9 minutes
Semi major axis: 7366 km
RCS: 3.1116 m2 (large)
Launch date: April 1, 1971
Source: Commonwealth of Independent States (former USSR) (CIS)
Launch site: TYURATAM MISSILE AND SPACE COMPLEX (TTMTR)
Your satellite tracking list
Your tracking list is empty




NASA's NSSDC Master Catalog

Two Line Element Set (TLE):
1  5105U 71025A   25168.57581005 -.00000061  00000-0  27592-4 0  9996
2  5105  64.9815  94.3562 0037620   9.5071 163.1494 13.73151596717964
Source of the keplerian elements: AFSPC